Regional Weather Roundup
Issued by NWS Upton, NY

Home | Current Version | Previous Version | Text Only | Print | Product List | Glossary On
Versions: 1 2 3 4 5 6 7 8 9 10 11 12 13 14 15 16 17 18 19 20 21 22 23 24 25 26 27 28 29 30 31 32 33 34 35 36 37 38 39 40 41 42 43 44 45 46 47 48 49 50
032
ASUS41 KOKX 261009
RWROKX

REGIONAL WEATHER ROUNDUP
NATIONAL WEATHER SERVICE NEW YORK NY
600 AM EDT FRI MAY 26 2017

NOTE: "FAIR" INDICATES FEW OR NO CLOUDS BELOW 12,000 FEET WITH NO
SIGNIFICANT WEATHER AND/OR OBSTRUCTIONS TO VISIBILITY.

NYZ071-072-176-178-NJZ106-104-261100-
NEW YORK CITY METRO AREA

CITY           SKY/WX    TMP DP  RH WIND       PRES   REMARKS
Central Park   LGT RAIN  56  55  97 VRB5      29.56R
Wall St Helipt LGT RAIN  58  55  90 CALM      29.55R
Bronx Bot Gard   N/A     55  54  94 NW2       29.54R
LaGuardia APRT LGT RAIN  57  55  93 NW7       29.52R FOG
Kennedy INTL   CLOUDY    57  57 100 N8        29.54R
Breezy Point     N/A     55 N/A N/A NW6         N/A
Newark/Liberty LGT RAIN  55  55 100 NW5       29.53R
Teterboro      LGT RAIN  56  55  97 NW5       29.52R
$$

NYZ177-179-078>081-261100-
LONG ISLAND NEW YORK

CITY           SKY/WX    TMP DP  RH WIND       PRES   REMARKS
Jones Beach      N/A     55 N/A N/A N7          N/A
Matinecock PT    N/A     79 N/A N/A NE5         N/A
Farmingdale    LGT RAIN  54  52  93 N6        29.53R FOG
MacArthur/ISP  CLOUDY    52  52 100 N8        29.50R FOG
Shirley        CLOUDY    53  53 100 N7        29.50R FOG
Mt Sinai Harb    N/A     52 N/A N/A N8          N/A
Westhampton    LGT RAIN  53  51  93 N9        29.49R
East Hampton   DRIZZLE   52  51  97 N9        29.47R
Montauk          N/A     54  53  97 N6        29.47R
$$

NYZ052-065-067-261100-
HUDSON VALLEY

CITY           SKY/WX    TMP DP  RH WIND       PRES   REMARKS
White Plains   LGT RAIN  54  52  93 NW3       29.53R FOG
Larchmont Harb   N/A     54 N/A N/A N5          N/A
Croton O-T Hud   N/A     55 N/A N/A W2          N/A
Newburgh       DRIZZLE   54  54 100 CALM      29.54R FOG
Montgomery     CLOUDY    55  53  93 N3        29.53R
Poughkeepsie   LGT RAIN  53  52  96 NW5       29.53R
Albany         LGT RAIN  53  50  89 N5        29.54R
$$

NJZ001-105-106-008-010-013-015-019>022-104-261100-
NEW JERSEY

CITY           SKY/WX    TMP DP  RH WIND       PRES   REMARKS
Newark/Liberty LGT RAIN  55  55 100 NW5       29.53R
Teterboro      LGT RAIN  56  55  97 NW5       29.52R
Caldwell       LGT RAIN  57  54  89 CALM      29.55R FOG
Somerville     CLOUDY    57  55  93 N3        29.52R
Linden         DRIZZLE   58  57  95 CALM      29.53R
Perth Amboy      N/A     57 N/A N/A W9          N/A
Sussex         CLOUDY    55  55 100 CALM      29.55R
Andover          N/A     55  54  96 CALM      29.54R
Trenton        CLOUDY    57  56  96 W5        29.54R
Millville      MOCLDY    59  59 100 W10       29.59R
Atlantic City  NOT AVBL
Wrightstown    CLOUDY    57  57 100 SW9       29.53R
Toms River     CLOUDY    58  57  97 W9        29.56R
Belmar         CLOUDY    57  56  96 W6        29.55R
$$

PAZ047>061-062-071-261100-
EASTERN PENNSYLVANIA

CITY           SKY/WX    TMP DP  RH WIND       PRES   REMARKS
Philadelphia   PTCLDY    59  56  89 W7        29.58R
Allentown      LGT RAIN  59  56  89 SW8       29.55R
Scranton       CLOUDY    58  57  97 SW5       29.56R
$$

CTZ002-004>006-009-010-012-RIZ004-006-007-MAZ004-011-015-261100-
SOUTHERN NEW ENGLAND
 IN CT

CITY           SKY/WX    TMP DP  RH WIND       PRES   REMARKS
Bradley INTL   RAIN      50  50 100 N7        29.51S FOG
Hartford       LGT RAIN  51  50  96 N7        29.51R
Danbury        LGT RAIN  51  51 100 CALM      29.54R
Wtrbury/Oxford LGT RAIN  50  45  81 N6        29.52R
Bridgeport     LGT RAIN  54  50  86 NW6       29.51R FOG
Meriden        LGT RAIN  51  49  92 N5        29.51R
New Haven      LGT RAIN  51  50  96 N12       29.50R
Chester        LGT RAIN  50  50 100 N5        29.49R
Groton         RAIN      52  50  93 N12       29.47R FOG
Wilimantic     LGT RAIN  52  50  93 N5        29.50R FOG

 IN RI

CITY           SKY/WX    TMP DP  RH WIND       PRES   REMARKS
Providence     LGT RAIN  50  50 100 N7        29.48S FOG
Block Island   LGT RAIN  55  55 100 SW8       29.47R FOG
Westerly       LGT RAIN  53  52  96 N7        29.47S FOG
 IN MA

CITY           SKY/WX    TMP DP  RH WIND       PRES   REMARKS
Boston         CLOUDY    49  48  97 N10       29.50R
Worcester      LGT RAIN  46  44  93 NE9       29.49S
Westfield      LGT RAIN  50  50 100 NW7       29.51R
Provincetown   MOCLDY    53  53 100 E3        29.48  FOG
Nantucket      PTCLDY    54  52  93 S13       29.49S
$$

ANZ330-335-338-340-345-350-353-355-261100-
COASTAL MARINE OBSERVATIONS


STATION/POSITION TIME  SKY/WX   TEMP    WIND        PRES    VSBY  WAVE
                                AIR SEA DIR/SP/G                  HT/PER
                 (UTC)          (F)     (DEG/KT/KT) (MB)    (MI)  (FT/S)
NY HARB ENTRANCE 0850            57 56  280/ 10/ 10  998.9          5/ 8
20 S FIRE ISLAND 0950            56 55  290/ 14/ 17  998.8          6/ 8
GREAT SOUTH BAY  0930            54 62  350/ 12/ 14   N/A
23 SSW MONTAUK P 0850            55 53               997.4          6/ 8
15 E BARNEGAT LI 0900               57                N/A           6/ 8
HUDSON CANYON    0850            55 53  210/ 16/ 17  999.2          7/10
KINGS POINT      0936            56 57   20/  6/  8  999.5
EXECUTION ROCKS  0945            56                   N/A
CENTRAL LI SOUND 0915            54      20/ 10/ 14   N/A           1/ 3
EASTERN LI SOUND NOT AVBL
ROBBINS REEF     0936            58     330/  5/  6 1000.0
$$


>>>>>>>>>>>>>>>>>>>>>>>>>>>> KEY <<<<<<<<<<<<<<<<<<<<<<<<<<<
>                                                          <
>     SKY/WX - Sky Condition/Present Weather               <
>     TMP    - Temperature in Fahrenheit                   <
>     DP     - Dew Point in Fahrenheit                     <
>     RH     - Relative Humidity in Percent                <
>     WIND   - Direction (from) and Speed in MPH           <
>     PRES   - Mean Sea Level Pressure (inches of Hg)      <
>     WCI    - Wind Chill Index                            <
>     VSB    - VISIBILITY IN MILES                         <
>     HX     - HEAT INDEX                                  <
>     TC     - TEMPERATURE IN CELSIUS                      <
>     VRB    - VARIABLE WIND DIRECTION                     <
>                                                          <
>>>>>>>>>>>>>>>>>>>>>>>>>>>> KEY <<<<<<<<<<<<<<<<<<<<<<<<<<<




USA.gov is the U.S. government's official web portal to all federal, state and local government web resources and services.